This demonstration page uses our WeatherBlox Daily Observations layout. Learn more.

Left ArrowRight Arrow

Hourly Observations for January 24, 2022

Temp ( °F °C ) Dew Point ( °F °C ) Humidity (%) Winds ( mph kmh ) Pressure ( in mb ) Visibility ( mi km ) Precip ( " mm )
12:54 am 00:54 Clear 29 -1.7 22 -5.6 75 75 S 5 7 29.67 1005 10 16 0.00 0.00
1:54 am 01:54 Mostly Cloudy 31 -0.6 23 -5 72 72 Calm 29.67 1005 10 16 0.00 0.00
2:54 am 02:54 Cloudy 36 2.2 26 -3.3 67 67 SW 5 7 29.67 1005 10 16 0.00 0.00
3:54 am 03:54 Cloudy 36 2.2 27 -2.8 70 70 SW 5 7 29.67 1005 10 16 0.00 0.00
4:54 am 04:54 Cloudy 36 2.2 27 -2.8 70 70 N 5 7 29.67 1005 10 16 0.00 0.00
5:54 am 05:54 Mostly Cloudy 35 1.7 27 -2.8 72 72 NNW 3 6 29.69 1006 10 16 0.00 0.00
6:54 am 06:54 Cloudy 34 1.1 26 -3.3 73 73 WNW 6 9 29.73 1007 10 16 0.00 0.00
7:47 am 07:47 Cloudy 35 1.7 27 -2.8 72 72 NNE 3 6 29.78 1009 10 16 0.00 0.00
7:54 am 07:54 Cloudy 35 1.7 27 -2.8 72 72 NNE 6 9 29.76 1008 10 16 0.00 0.00
8:54 am 08:54 Cloudy 39 3.9 31 -0.6 73 73 NNW 15 24 29.80 1009 10 16 0.00 0.00
9:40 am 09:40 Cloudy 40 4.4 30 -1.1 68 68 NNW 24 39 29.84 1011 10 16 0.00 0.00
9:54 am 09:54 Cloudy 40 4.4 30 -1.1 68 68 NNW 18 30 29.83 1010 10 16 0.00 0.00
10:54 am 10:54 Cloudy 36 2.2 25 -3.9 64 64 N 25 41 29.88 1012 10 16 0.00 0.00
11:54 am 11:54 Cloudy 30 -1.1 18 -7.8 61 61 N 25 41 29.95 1014 10 16 0.00 0.00
12:05 pm 12:05 Cloudy 30 -1.1 18 -7.8 61 61 N 22 35 29.99 1015 10 16 0.00 0.00
12:39 pm 12:39 Cloudy 31 -0.6 17 -8.3 56 56 N 21 33 29.98 1015 10 16 0.00 0.00
12:47 pm 12:47 Cloudy 31 -0.6 17 -8.3 56 56 N 23 37 29.99 1016 10 16 0.00 0.00
12:54 pm 12:54 Cloudy 31 -0.6 17 -8.3 56 56 N 25 41 29.96 1015 10 16 0.00 0.00
1:54 pm 13:54 Sunny 30 -1.1 13 -10.6 49 49 N 23 37 29.98 1015 10 16 0.00 0.00
2:54 pm 14:54 Sunny 27 -2.8 10 -12.2 49 49 N 20 31 30.02 1017 10 16 0.00 0.00
3:54 pm 15:54 Sunny 26 -3.3 9 -12.8 48 48 N 21 33 30.05 1018 10 16 0.00 0.00
4:54 pm 16:54 Sunny 24 -4.4 7 -13.9 48 48 N 16 26 30.09 1019 10 16 0.00 0.00
5:54 pm 17:54 Clear 20 -6.7 6 -14.4 55 55 N 16 26 30.13 1020 10 16 0.00 0.00
6:54 pm 18:54 Clear 17 -8.3 4 -15.6 56 56 N 14 22 30.16 1021 10 16 0.00 0.00
7:54 pm 19:54 Clear 15 -9.4 3 -16.1 59 59 N 15 24 30.19 1023 10 16 0.00 0.00
8:54 pm 20:54 Clear 12 -11.1 2 -16.7 64 64 N 12 19 30.22 1023 10 16 0.00 0.00
9:54 pm 21:54 Clear 10 -12.2 0 -17.8 63 63 N 8 13 30.24 1024 10 16 0.00 0.00
10:54 pm 22:54 Clear 7 -13.9 -1 -18.3 70 70 N 6 9 30.27 1025 10 16 0.00 0.00
11:54 pm 23:54 Clear 4 -15.6 -3 -19.4 73 73 N 8 13 30.29 1026 10 16 0.00 0.00

Powered by AerisWeather